Flag for China Weather past 2 weeks in Xiamen, Fujian, China

Now
81 °F

Passing clouds.


Feels Like: 88 °F
Forecast: 79 / 92 °F
Wind: 3 mph from Southwest

Location: Xiamen Airport

Current Time: Aug 22, 2014 at 12:32:45 AM

Latest Report: Aug 22, 2014 at 12:00 AM


Visibility: N/A

Pressure: 29.86 "Hg

Humidity: 94%

Dew point: 79 °F

Location of XiamenLocation

Historic Weather in Xiamen — Graph

°F

Xiamen temperature yesterday

Maximum temperature yesterday: 91 °F (at 1:00 PM)
Minimum temperature yesterday: 79 °F (at 12:00 AM)
Average temperature yesterday: 84 °F

Past Weeks' High & Low Weather Summary

 TemperatureHumidityPressure
High95 °F (Aug 10, 1:00 PM)100% (Aug 12, 4:00 PM)29.86 "Hg (Aug 12, 4:00 PM)
Low77 °F (Aug 20, 12:00 AM)53% (Aug 15, 1:00 PM)29.53 "Hg (Aug 7, 3:00 PM)
Average85 °F84%29.69 "Hg
* Reported Aug 6 11:00 PM — Aug 21 11:00 PM, Xiamen, Weather by CustomWeather, © 2014

Note: Actual official high and low records may vary slightly from our data, if they occured in-between our weather recording intervals... More about our weather records

Advertising

Xiamen weather history for previous 24 hours

 ConditionsComfort  
Time TempWeatherWind HumidityBarometerVisibility
11:00 PM
Aug 21
81 °FClear.6 mph94%29.86 "Hg10 mi
10:00 PM82 °FPassing clouds.3 mph84%29.86 "HgN/A
9:00 PM82 °FClear.1 mph84%29.83 "Hg10 mi
8:00 PM82 °FPassing clouds.1 mph84%29.83 "HgN/A
7:00 PM82 °FPartly cloudy.8 mph84%29.80 "HgN/A
6:00 PM84 °FBroken clouds.8 mph79%29.80 "HgN/A
5:00 PM86 °FScattered clouds.10 mph79%29.77 "HgN/A
4:00 PM90 °FPassing clouds.10 mph71%29.77 "HgN/A
3:00 PM90 °FPassing clouds.13 mph71%29.77 "HgN/A
2:00 PM88 °FScattered clouds.8 mph75%29.80 "HgN/A
1:00 PM91 °FScattered clouds.3 mph59%29.83 "HgN/A
12:00 PM90 °FPassing clouds.6 mph67%29.83 "HgN/A
11:00 AM90 °FPassing clouds.3 mph63%29.86 "HgN/A
10:00 AM86 °FPassing clouds.3 mph75%29.86 "HgN/A
9:00 AM84 °FPassing clouds.6 mph79%29.86 "Hg4 mi
8:00 AM81 °FPassing clouds.6 mph94%29.86 "Hg4 mi
7:00 AM81 °FPassing clouds.6 mph89%29.86 "Hg5 mi
6:00 AM79 °FPassing clouds.1 mph94%29.83 "Hg5 mi
5:00 AM79 °FPassing clouds.3 mph94%29.83 "Hg5 mi
4:00 AM79 °FPassing clouds.1 mph94%29.83 "Hg5 mi
3:00 AM81 °FPassing clouds.3 mph89%29.83 "HgN/A
2:00 AM81 °FPassing clouds.1 mph89%29.83 "HgN/A
1:00 AM79 °FPassing clouds.1 mph94%29.83 "HgN/A
12:00 AM79 °FClear.3 mph89%29.86 "Hg10 mi
Weather by CustomWeather, © 2014

See weather overviewHow to use our weather pages